Location: El Atico
(3.0014°N, 75.4378°W)
Time: 12:33:09
(UTC+00:00)

IRS-P3 - Pass Details

Date: 09 December 2025
Orbit: 811 x 815 km, 99.0° (Epoch: 25 January)

Event Time Altitude Azimuth Distance (km) Brightness Sun altitude
Rises 23:18:22 0° 164° (SSE) 3,336 7.4 -6.7°
Reaches altitude 10° 23:20:43 10° 162° (SSE) 2,403 6.6 -7.2°
Maximum altitude 23:26:01 74° 77° (ENE) 845 4.1 -8.4°
Drops below altitude 10° 23:31:18 10° 352° (N) 2,393 6.4 -9.7°
Sets 23:33:38 0° 351° (N) 3,322 7.2 -10.2°
